Location: Hanover
(52.3667°N, 9.7167°E)
Time: 05:40:01
(UTC+02:00)

Envisat - Pass Details

Date: 22 September 2024
Orbit: 762 x 764 km, 98.3° (Epoch: 04 October)

Event Time Altitude Azimuth Distance (km) Brightness Sun altitude
Rises 03:21:07 0° 25° (NNE) 3,239 7.3 -31.1°
Reaches altitude 10° 03:24:04 10° 42° (NE) 2,307 6.4 -30.8°
Maximum altitude 03:27:44 20° 89° (E) 1,726 5.2 -30.5°
Enters shadow 03:29:54 15° 120° (ESE) 1,947 5.2 -30.2°
